This demonstration page uses our WeatherBlox Daily Observations layout. Learn more.

Left ArrowRight Arrow

Hourly Observations for March 11, 2022

Temp ( °F °C ) Dew Point ( °F °C ) Humidity (%) Winds ( mph kmh ) Pressure ( in mb ) Visibility ( mi km ) Precip ( " mm )
12:56 am 00:56 Clear 14 -10 8 -13.3 77 77 WSW 13 20 30.28 1025 10 16 0.00 0.00
1:56 am 01:56 Clear 15 -9.4 8 -13.3 74 74 W 13 20 30.28 1025 10 16 0.00 0.00
2:56 am 02:56 Clear 12 -11.1 5 -15 73 73 WNW 12 19 30.26 1025 10 16 0.00 0.00
3:56 am 03:56 Clear 13 -10.6 5 -15 70 70 W 8 13 30.27 1025 10 16 0.00 0.00
4:56 am 04:56 Clear 13 -10.6 4 -15.6 67 67 WNW 9 15 30.29 1026 10 16 0.00 0.00
5:56 am 05:56 Clear 10 -12.2 3 -16.1 73 73 WNW 8 13 30.31 1026 10 16 0.00 0.00
6:56 am 06:56 Sunny 7 -13.9 2 -16.7 80 80 WNW 6 9 30.32 1027 10 16 0.00 0.00
7:56 am 07:56 Sunny 12 -11.1 4 -15.6 70 70 WNW 10 17 30.33 1027 10 16 0.00 0.00
8:56 am 08:56 Sunny 15 -9.4 5 -15 64 64 NW 9 15 30.35 1028 10 16 0.00 0.00
9:56 am 09:56 Sunny 21 -6.1 10 -12.2 62 62 N 13 20 30.35 1028 10 16 0.00 0.00
10:56 am 10:56 Sunny 24 -4.4 14 -10 65 65 N 13 20 30.37 1028 10 16 0.00 0.00
11:56 am 11:56 Mostly Sunny 25 -3.9 14 -10 63 63 N 13 20 30.37 1029 10 16 0.00 0.00
12:56 pm 12:56 Partly Cloudy 26 -3.3 13 -10.6 57 57 NNW 15 24 30.37 1028 10 16 0.00 0.00
1:56 pm 13:56 Partly Cloudy 27 -2.8 15 -9.4 61 61 N 13 20 30.35 1028 10 16 0.00 0.00
2:56 pm 14:56 Mostly Cloudy 27 -2.8 14 -10 58 58 NNW 14 22 30.35 1028 10 16 0.00 0.00
3:56 pm 15:56 Mostly Cloudy 28 -2.2 14 -10 56 56 N 8 13 30.35 1028 10 16 0.00 0.00
4:56 pm 16:56 Partly Cloudy 27 -2.8 14 -10 58 58 N 16 26 30.35 1028 10 16 0.00 0.00
5:56 pm 17:56 Mostly Sunny 24 -4.4 13 -10.6 62 62 NNW 12 19 30.38 1029 10 16 0.00 0.00
6:56 pm 18:56 Clear 22 -5.6 11 -11.7 63 63 NNW 9 15 30.40 1030 10 16 0.00 0.00
7:56 pm 19:56 Clear 20 -6.7 10 -12.2 65 65 NW 6 9 30.41 1030 10 16 0.00 0.00
8:56 pm 20:56 Clear 14 -10 6 -14.4 71 71 NNE 8 13 30.44 1031 10 16 0.00 0.00
9:56 pm 21:56 Clear 10 -12.2 2 -16.7 69 69 NNE 9 15 30.44 1031 10 16 0.00 0.00
10:56 pm 22:56 Clear 11 -11.7 0 -17.8 61 61 E 3 6 30.44 1031 10 16 0.00 0.00
11:56 pm 23:56 Clear 10 -12.2 -1 -18.3 61 61 Calm 30.43 1030 10 16 0.00 0.00

Powered by AerisWeather